Theta_e
298 299 298 298 298 298 298 298 297 298 297 297 298 299 300 300 299 295 290 293 289 281 282 283 283 279 278 277 272 272 273 269 270 270 265 265 258 267 264 269 269 265 260 258 257 255 260 276 274 270 273 278 279 278
298 298 298 298 298 298 298 298 298 298 298 298 298 298 299 299 299 298 287 292 294 285 283 284 286 288 286 285 279 275 276 268 276 267 265 263 261 257 261 262 274 265 269 265 267 266 276 277 276 279 279 278 277 276
297 298 298 298 297 297 297 298 297 297 296 297 297 298 298 299 299 297 289 286 289 285 284 284 282 286 288 287 289 279 276 282 277 279 273 273 269 266 267 262 270 273 276 271 269 275 275 277 278 278 280 277 277 276
297 297 297 297 298 297 297 297 297 296 296 296 297 297 297 298 298 297 290 289 288 283 277 278 283 282 287 288 287 287 285 283 283 281 278 275 269 274 269 272 271 273 273 270 271 275 276 277 278 278 277 277 275 275
296 296 296 297 297 297 297 297 296 296 296 295 296 296 296 296 297 296 293 290 291 284 274 277 278 282 284 284 284 285 284 282 281 278 276 274 278 276 276 275 272 276 273 271 270 276 275 276 278 276 275 274 273 272
295 296 296 296 296 296 296 296 296 296 296 295 295 295 296 296 296 290 283 287 290 290 281 275 276 276 280 283 282 282 282 282 282 279 277 279 280 277 272 270 276 277 278 278 276 279 278 278 275 273 271 271 271 271
295 295 295 296 296 296 296 296 296 296 296 295 295 295 295 295 292 285 282 284 291 291 281 275 268 273 279 278 278 280 280 282 280 279 278 278 277 279 274 270 277 278 278 278 275 272 273 273 271 270 270 269 268 267
294 294 294 295 295 295 295 295 295 295 295 295 295 294 294 295 293 288 291 293 291 285 281 273 266 267 274 271 272 275 275 280 280 278 274 276 277 276 271 276 277 277 272 271 268 268 268 268 268 267 266 266 263 263
293 293 294 294 294 295 295 295 295 295 295 294 294 294 290 288 284 283 293 294 291 284 276 274 266 263 270 272 276 277 278 273 277 274 274 275 273 270 271 272 267 265 264 263 264 265 264 263 262 263 262 261 260 261
292 292 293 293 293 294 295 294 294 294 294 294 289 284 280 282 290 291 286 281 281 281 280 272 262 263 272 269 265 269 276 273 270 272 274 273 270 270 264 263 263 262 261 261 259 260 258 258 258 259 259 260 260 260
291 291 292 292 293 293 293 294 294 294 293 285 282 279 283 290 283 280 275 274 273 272 273 267 272 270 273 265 269 276 272 271 266 264 265 252 257 266 262 260 260 261 260 258 257 258 258 258 257 257 258 258 258 257
290 290 291 291 292 292 292 293 294 290 284 284 284 285 285 281 277 273 271 269 269 265 262 267 267 271 270 277 273 271 269 268 264 255 257 253 264 257 256 257 258 258 255 254 256 256 257 257 257 256 255 255 255 255
289 289 290 290 290 291 292 292 293 292 290 285 281 277 276 275 269 267 262 264 258 256 257 260 263 269 273 275 273 271 267 264 258 258 257 261 257 255 253 254 254 255 255 255 255 255 255 254 255 254 253 254 254 254
289 289 289 289 290 290 290 291 292 291 284 277 274 269 269 266 266 260 260 261 265 263 260 262 266 271 268 271 272 266 267 264 261 257 257 252 251 249 251 252 249 251 251 252 251 252 252 252 253 253 253 253 254 254
288 288 288 288 289 289 290 290 291 287 281 275 274 266 263 260 253 253 251 257 258 259 265 265 265 272 269 269 269 265 262 260 258 258 252 250 251 250 251 250 248 249 250 250 250 250 250 251 251 251 252 254 255 257
288 288 284 288 288 288 289 289 286 284 277 275 270 265 259 263 256 256 252 258 258 263 264 266 262 263 263 264 265 261 258 256 258 246 246 247 246 246 247 247 247 247 247 248 249 249 249 249 249 251 253 254 257 257
286 277 286 287 287 288 288 279 279 268 269 265 260 258 256 259 261 257 257 257 262 258 261 262 259 259 262 257 256 255 255 248 244 242 242 243 244 247 246 245 246 246 246 247 247 248 248 249 251 252 254 256 256 257
278 282 286 286 286 284 275 273 267 264 258 256 260 256 253 256 255 255 255 259 259 259 258 259 259 253 253 252 253 247 243 240 241 242 245 245 243 244 242 243 245 245 246 246 247 246 245 250 253 255 256 256 256 256
282 281 285 287 282 275 271 265 265 258 254 255 255 255 255 255 256 256 255 256 254 255 255 251 252 251 252 245 244 240 239 241 243 247 249 245 243 242 245 245 246 245 246 246 247 251 254 255 256 256 256 256 255 256
281 281 281 279 279 271 264 260 263 259 256 255 256 254 254 253 252 246 246 249 250 250 251 249 248 242 245 244 245 244 246 248 244 245 247 246 245 243 245 248 249 249 250 252 254 255 255 255 256 256 257 256 256 255
274 274 276 271 266 264 261 260 256 256 255 254 253 252 250 248 243 242 243 244 247 241 243 240 239 240 240 241 243 243 245 245 244 245 245 244 246 248 252 253 253 253 253 252 252 253 253 253 254 255 255 255 256 256
268 272 264 268 264 261 259 258 258 257 254 251 249 246 243 244 242 242 244 245 242 242 241 240 240 239 240 242 241 240 241 239 240 242 248 249 250 251 252 253 252 251 252 252 252 252 253 253 254 254 254 254 255 255
265 265 260 258 259 257 254 257 255 251 253 248 243 244 243 242 242 246 244 240 240 240 238 238 239 237 240 239 239 241 241 242 243 245 248 250 251 252 253 253 252 250 250 251 252 252 252 253 253 253 253 253 253 252
260 253 251 249 250 247 246 246 248 246 244 243 242 243 243 241 245 244 244 238 241 237 240 240 238 242 242 243 242 243 246 247 249 250 250 250 252 252 253 253 252 252 251 251 251 251 252 252 252 251 250 249 249 248
255 245 247 243 244 245 243 242 242 245 242 239 241 242 243 241 243 241 242 241 238 238 240 239 240 241 244 243 244 246 249 250 251 250 251 251 252 253 253 254 253 252 252 250 250 250 250 251 250 249 249 248 247 246
242 240 242 237 242 244 240 242 240 241 240 241 240 240 238 240 242 244 242 240 239 241 244 248 247 246 245 245 246 249 251 251 250 250 251 252 252 251 250 251 251 252 251 250 249 247 247 248 248 248 248 247 247 242
241 240 240 239 240 240 241 239 239 241 240 242 239 240 241 243 242 245 242 242 245 246 247 248 248 249 249 248 248 251 252 252 252 251 251 251 253 252 251 250 250 251 249 248 247 245 246 246 247 248 247 245 241 238
239 237 242 239 238 235 238 236 238 240 240 239 239 241 243 245 245 245 246 247 246 246 248 248 251 251 251 252 252 252 250 249 249 250 249 250 250 251 251 251 251 256 252 249 249 249 247 248 248 248 246 245 245 240
238 235 237 239 237 239 238 239 239 238 238 236 241 241 241 242 241 242 246 246 245 247 248 249 249 250 251 250 249 248 248 247 248 248 248 248 249 251 250 250 250 249 248 247 250 254 252 251 251 250 245 244 244 238
238 233 238 236 240 241 239 236 236 233 233 236 234 240 240 241 241 240 244 245 247 247 245 243 241 243 244 243 243 244 241 244 247 248 246 246 248 247 243 243 244 245 243 240 245 246 249 246 246 243 243 243 243 242
233 233 237 236 239 236 233 230 229 230 231 232 230 236 239 239 242 242 242 242 241 238 241 242 240 236 240 240 240 240 246 243 242 245 245 245 246 246 247 248 248 246 243 242 242 242 243 243 242 243 244 244 244 245
233 233 238 241 239 234 231 231 230 233 231 234 236 230 236 238 241 243 241 240 239 240 244 241 241 247 244 246 242 244 248 247 245 247 247 248 249 250 250 249 247 245 244 245 244 244 244 245 246 246 246 245 245 245
230 229 229 234 237 238 234 234 235 236 234 234 235 231 231 236 242 244 243 238 242 243 243 245 245 243 244 246 248 249 250 250 250 254 255 255 253 253 252 250 248 246 246 246 247 247 246 246 246 246 246 246 246 246
Wind_Speed
24 23 24 22 22 22 22 22 21 20 20 19 20 19 20 20 18 9 4 7 5 4 11 6 7 5 1 3 4 5 3 4 2 4 4 5 4 5 1 3 5 4 3 4 1 1 9 3 5 1 7 4 4 5
26 25 24 22 23 22 23 18 20 20 19 22 22 19 20 22 21 16 4 6 7 6 3 4 13 20 15 17 5 4 6 6 5 2 1 3 2 1 5 8 5 5 8 6 10 8 6 10 8 9 7 9 5 5
26 26 27 26 25 24 23 23 20 21 20 19 22 20 19 20 22 17 4 4 3 4 7 10 12 12 9 12 15 9 3 7 6 6 4 4 8 5 8 7 10 9 15 8 1 11 15 12 14 7 7 7 6 5
26 26 26 26 27 26 26 22 24 22 22 20 20 21 20 20 20 19 6 5 4 2 4 10 2 4 9 13 14 15 19 4 5 3 7 6 5 6 5 8 9 9 4 7 14 17 16 18 15 12 7 6 3 4
25 26 27 26 26 26 25 24 26 22 22 19 19 20 19 19 20 13 6 6 8 6 3 4 4 5 6 9 14 15 15 13 9 7 5 8 6 5 4 5 9 11 19 13 16 20 15 15 10 3 5 4 2 7
25 26 26 27 27 26 26 26 26 24 22 21 19 18 18 18 18 2 4 7 11 9 4 5 5 4 7 12 14 14 14 11 10 6 6 7 8 6 6 7 14 14 13 17 20 19 16 14 4 4 2 6 8 8
25 25 26 26 27 27 25 24 24 25 24 22 19 18 18 17 7 4 3 3 11 8 4 4 5 4 2 4 4 7 6 5 6 6 9 9 7 6 5 13 17 15 13 12 2 2 8 3 2 7 6 9 11 12
24 24 24 24 25 26 24 23 21 22 23 23 20 17 17 17 14 11 9 7 10 3 3 4 6 3 4 2 2 2 4 6 6 7 1 7 4 4 9 14 16 8 3 4 6 5 4 7 7 8 8 8 12 13
24 24 23 23 24 25 25 23 23 22 22 19 17 15 5 4 4 4 12 21 8 6 4 4 5 5 1 2 1 3 3 4 2 6 8 5 4 8 8 4 4 6 4 6 8 6 5 7 10 10 10 10 12 16
21 22 22 22 23 21 22 23 22 20 19 17 6 4 4 4 4 8 4 4 6 5 5 5 1 3 5 3 3 3 4 5 5 5 3 5 7 2 5 7 7 6 6 8 5 5 8 6 10 13 13 12 12 14
20 20 19 19 20 19 20 23 21 19 15 3 5 5 2 7 2 3 4 5 3 3 2 4 8 7 3 4 6 5 4 3 4 5 5 1 5 4 6 6 5 5 6 5 4 7 9 10 12 14 15 12 14 15
17 17 18 20 19 19 16 19 24 14 5 7 5 3 3 4 4 6 6 2 4 8 3 5 4 4 2 2 4 3 4 2 4 2 5 3 4 6 5 3 4 5 6 6 5 9 10 12 12 13 14 15 15 16
22 18 17 16 16 17 17 16 16 18 12 3 4 6 5 4 9 8 7 2 1 2 3 1 1 3 2 3 4 3 5 5 2 3 6 6 4 4 1 3 2 3 4 8 10 8 10 12 11 11 14 13 15 15
21 20 18 19 18 16 16 17 18 15 4 5 5 8 7 5 5 6 6 6 4 4 5 3 2 3 1 3 1 2 1 3 2 2 8 2 2 3 4 2 2 6 6 8 9 10 11 12 12 12 12 12 13 14
17 16 17 15 16 17 17 17 17 6 3 4 5 6 7 3 2 2 2 3 2 1 2 3 2 1 2 3 3 2 2 4 7 8 2 3 1 3 4 4 4 6 7 8 8 9 11 11 11 13 12 11 12 11
14 17 9 12 13 12 15 15 7 3 1 3 3 3 1 4 3 1 1 2 2 1 2 3 2 2 4 3 3 7 5 8 5 3 3 2 3 4 4 5 6 6 6 8 9 9 10 11 11 11 12 11 8 9
8 3 8 11 12 14 14 3 2 6 3 4 2 2 3 4 4 2 1 1 2 2 3 3 6 10 2 1 4 5 6 3 4 3 2 3 4 5 5 6 7 7 7 8 7 9 9 9 10 9 8 8 8 8
4 5 6 5 4 6 4 5 5 5 6 2 3 2 2 1 4 2 0 1 1 2 2 5 4 3 6 7 6 3 2 3 3 3 3 3 4 5 3 6 7 7 7 7 7 7 6 8 6 5 7 7 7 6
7 9 16 11 8 4 3 4 4 6 3 2 3 2 2 3 4 4 2 2 2 1 4 4 4 4 5 2 3 3 2 2 2 2 3 4 4 5 6 6 7 5 6 5 5 6 6 6 5 5 5 5 4 5
10 19 16 17 7 4 5 4 3 5 3 3 2 3 2 3 1 2 3 4 2 2 4 2 5 4 4 3 3 3 3 2 2 2 3 3 3 3 5 4 3 5 5 5 6 7 6 5 5 6 5 5 4 5
7 8 14 8 5 7 6 3 4 3 4 4 1 2 2 4 5 4 3 3 4 2 0 3 3 3 2 1 0 2 1 3 3 4 3 3 4 2 3 4 5 4 4 5 6 6 7 6 6 6 5 5 5 5
2 9 4 6 5 4 6 6 4 2 4 2 3 2 3 2 2 2 3 5 1 3 4 3 3 2 1 0 2 3 3 2 2 2 5 4 2 2 3 3 4 5 5 5 5 6 6 6 7 6 6 6 6 5
7 5 6 7 6 6 2 2 4 4 4 1 2 4 3 2 3 1 2 2 4 3 3 3 3 2 3 2 0 1 3 3 0 1 2 2 2 1 1 1 3 3 4 5 5 5 6 9 8 7 6 7 6 6
11 10 8 6 6 2 3 5 3 4 4 5 4 2 1 2 2 4 1 3 4 2 0 2 2 2 2 3 1 2 2 2 1 1 1 1 0 1 1 1 0 1 2 4 4 4 5 5 8 6 6 6 6 4
9 12 7 7 4 6 7 6 6 5 3 2 4 2 2 3 3 0 3 4 2 2 3 2 2 2 4 2 2 2 2 2 1 2 2 2 1 1 1 1 0 1 2 3 4 5 5 5 5 6 5 4 6 6
11 5 5 1 4 4 0 3 2 2 2 3 0 2 3 3 2 5 4 4 4 5 5 6 5 3 2 3 3 2 2 3 2 2 2 3 2 1 1 2 2 1 1 1 2 4 5 5 5 6 6 6 7 5
7 4 3 0 2 3 4 2 2 3 3 3 2 1 2 2 4 5 3 3 3 4 4 4 4 3 3 2 2 2 2 3 4 3 2 2 3 3 4 3 3 3 1 2 2 2 4 5 5 5 5 3 4 4
3 2 3 4 3 1 5 2 2 2 3 2 3 2 6 7 5 4 4 2 2 1 2 2 3 3 2 2 2 1 2 0 2 3 3 3 4 3 4 4 4 9 4 3 3 4 4 5 5 7 5 5 5 3
4 3 1 4 3 3 1 3 3 3 2 3 3 3 4 4 3 2 2 2 2 3 3 3 1 1 1 1 1 2 2 2 1 2 2 3 3 3 3 3 3 2 2 3 8 8 8 7 8 4 5 4 4 3
4 1 3 1 2 1 3 3 2 3 1 2 1 4 3 4 4 1 0 1 3 3 3 3 2 3 3 2 3 5 3 4 5 5 4 4 5 3 2 3 3 4 2 2 5 6 7 4 5 4 4 4 3 4
1 2 2 1 1 3 3 2 2 1 2 1 1 2 4 5 6 3 3 3 3 3 3 1 2 2 4 3 3 1 5 3 5 7 6 4 5 5 5 5 5 3 3 4 4 4 4 3 3 5 7 8 8 7
3 2 2 2 3 3 3 3 1 1 3 2 3 2 4 4 4 4 2 4 3 2 5 4 3 6 6 5 3 4 6 4 3 5 7 5 6 7 6 5 4 3 4 5 5 5 6 8 7 8 8 10 9 9
2 0 0 1 4 4 3 2 4 4 2 2 3 1 2 2 5 5 2 3 4 4 4 5 5 3 5 6 6 5 6 6 7 9 10 12 13 11 7 6 5 5 7 7 7 7 9 9 10 10 10 10 10 10
Wind_Direction
257 250 252 249 251 252 249 245 254 252 259 259 260 257 252 238 238 224 209 176 209 225 243 204 194 170 160 164 172 238 11 318 55 194 167 222 172 227 103 236 185 159 173 232 21 78 280 315 352 120 231 245 203 209
251 252 253 253 252 258 257 256 248 251 262 256 265 248 257 242 235 225 202 184 203 239 273 264 229 232 236 238 216 201 223 173 204 118 282 91 266 25 167 253 203 254 201 233 188 214 280 314 246 253 257 254 224 235
257 252 255 255 258 257 253 247 256 257 258 253 258 255 251 248 241 233 198 165 179 240 259 241 238 228 229 215 207 230 228 206 215 179 195 213 235 132 244 232 254 243 244 231 7 260 261 257 267 258 224 218 241 226
260 259 259 255 251 250 251 247 251 252 253 257 261 258 251 248 245 234 218 171 191 199 245 265 8 198 215 215 215 218 246 245 245 194 236 220 219 182 222 239 224 235 132 226 256 271 270 270 261 260 211 245 263 290
259 260 259 256 253 252 249 244 247 249 251 258 249 253 265 257 247 240 223 199 198 206 247 288 315 239 195 191 211 216 225 233 231 231 225 241 241 225 215 238 246 235 244 246 252 268 264 277 294 153 234 213 261 286
262 261 258 255 253 251 249 247 242 244 247 253 250 251 254 255 251 182 233 211 199 197 248 245 300 220 215 214 225 218 214 220 217 223 226 232 220 221 239 247 264 249 232 237 256 268 273 273 91 78 329 310 300 295
261 260 259 257 254 252 248 245 240 239 240 248 251 249 255 250 235 200 200 213 194 173 224 242 274 250 187 221 233 226 187 213 213 229 234 241 228 215 240 258 266 253 251 256 314 4 265 200 323 350 329 322 313 300
259 259 258 258 255 254 249 243 240 240 231 237 246 251 251 248 254 232 224 195 143 177 222 215 255 11 195 180 232 177 184 202 210 233 252 230 244 224 252 252 256 283 357 82 37 19 333 323 326 330 323 317 303 296
261 260 260 260 250 246 247 238 235 234 234 235 241 250 275 227 216 211 197 193 189 192 217 193 168 233 355 222 176 156 217 207 183 213 222 173 209 224 225 262 55 36 38 339 329 328 10 345 321 322 321 313 300 301
271 261 259 261 259 251 248 237 230 233 227 227 209 177 221 203 216 112 110 208 219 195 204 179 142 215 134 169 254 131 193 221 214 220 108 220 236 90 86 79 76 62 37 8 351 348 339 319 320 314 305 298 295 299
264 266 266 257 249 239 240 236 223 231 211 172 198 193 173 166 92 183 204 205 163 222 210 222 186 227 214 152 219 210 203 186 198 246 165 295 270 134 110 90 59 45 26 13 355 300 297 293 301 305 307 304 304 301
264 269 258 248 250 248 244 253 224 207 164 175 137 113 174 184 203 199 188 183 191 207 248 163 226 205 244 134 185 196 200 173 213 102 89 260 240 92 59 27 10 7 345 321 308 299 300 297 299 297 295 299 299 299
256 249 255 257 248 243 237 233 229 189 153 126 169 169 180 180 217 190 190 221 305 195 215 174 244 179 186 216 225 211 188 215 115 76 217 222 103 85 359 282 304 319 322 318 308 296 291 286 287 282 289 288 291 294
258 250 247 243 246 237 235 221 225 208 158 176 175 177 184 199 228 184 176 185 216 125 158 147 114 206 197 191 205 197 157 128 171 228 234 148 175 268 286 282 351 317 310 302 297 295 292 293 295 293 282 284 290 291
244 242 239 240 239 240 228 216 207 200 188 180 177 207 195 182 69 218 235 72 330 91 130 81 36 212 192 237 212 73 168 239 202 222 207 232 322 308 311 314 302 301 303 303 298 295 292 292 292 291 286 284 285 297
228 241 240 229 233 223 220 213 193 156 94 180 79 134 294 88 314 16 58 129 254 302 84 70 126 110 236 196 196 213 155 219 229 196 224 303 298 285 281 280 285 277 280 288 289 284 287 286 282 282 291 286 298 305
259 190 224 220 230 221 212 110 98 39 72 98 114 49 347 57 120 114 231 134 301 90 147 123 154 214 30 70 245 196 208 210 206 259 240 229 247 278 288 293 288 288 289 284 283 285 278 277 278 280 289 315 315 311
46 337 312 253 136 74 37 29 80 64 65 16 115 36 14 29 100 77 184 11 184 104 124 179 111 118 193 190 250 221 238 258 223 225 241 267 281 285 258 270 289 282 280 283 275 273 266 281 291 306 314 321 317 320
75 41 4 194 117 95 94 54 25 97 62 80 84 59 32 74 44 28 22 15 35 48 96 52 96 203 230 186 176 240 249 197 233 280 276 273 260 271 293 297 285 289 296 286 294 298 303 314 317 320 323 324 327 332
54 36 38 40 66 79 75 40 39 86 113 107 81 83 67 65 49 354 2 5 31 67 65 141 209 208 163 219 188 175 187 164 123 341 307 303 298 311 295 289 304 305 307 319 331 343 341 344 345 338 340 350 348 351
38 359 25 53 54 57 74 57 66 75 108 79 59 58 64 23 31 5 337 299 61 89 4 212 214 242 257 238 178 134 182 152 188 183 212 286 299 300 317 356 342 336 345 348 345 349 1 351 337 339 347 355 360 357
352 18 59 27 75 70 76 18 74 77 68 67 58 57 65 63 314 292 261 49 51 238 185 171 219 185 36 269 231 202 206 170 240 251 261 254 297 334 351 9 354 350 348 358 346 348 350 353 354 354 358 359 5 11
25 33 54 21 81 43 56 357 86 21 115 156 36 60 19 11 254 342 41 212 246 235 194 194 204 181 158 287 22 325 196 154 107 259 280 272 254 279 329 21 16 354 346 349 339 346 354 356 356 1 358 11 10 13
29 47 37 41 30 95 6 25 33 59 53 43 68 71 339 230 291 55 243 260 250 321 186 209 133 68 9 24 57 239 252 168 209 268 261 292 307 312 315 313 142 5 332 304 323 339 352 358 356 357 5 5 7 5
70 355 27 7 2 47 39 19 359 50 70 355 82 4 323 13 62 345 225 266 268 236 227 188 145 154 154 222 277 259 226 155 198 260 244 195 284 308 333 311 176 116 352 346 355 348 349 348 354 355 356 359 355 350
68 316 53 305 333 74 221 74 43 136 110 56 245 285 28 84 88 243 233 218 214 197 188 183 171 154 242 190 171 199 215 173 148 233 261 179 201 205 265 319 329 267 109 5 326 324 330 330 331 337 337 341 338 335
68 345 328 343 125 114 60 36 67 83 87 151 223 87 88 130 250 253 276 229 197 218 186 161 160 161 177 183 229 234 198 184 205 227 237 224 225 203 200 220 254 245 173 235 234 223 277 304 305 301 297 294 261 248
121 30 79 303 42 10 122 79 98 165 216 221 95 171 163 190 233 241 212 254 218 169 131 145 160 159 156 187 187 197 301 335 292 276 273 253 230 219 215 229 241 266 255 209 249 244 236 255 271 281 272 274 284 234
44 327 36 11 5 35 136 148 206 236 197 117 145 238 247 235 234 223 256 218 155 117 125 139 238 98 26 350 283 233 197 162 98 333 319 292 328 296 204 218 238 249 248 264 280 272 261 255 262 254 242 251 269 272
328 24 73 36 78 320 259 168 231 263 259 203 234 311 304 278 252 240 268 86 143 185 194 173 173 144 207 166 289 314 257 198 192 175 192 237 229 241 232 242 259 259 239 249 279 296 310 337 323 332 315 300 276 277
315 32 56 64 207 253 238 284 298 327 16 356 327 166 253 304 306 236 197 201 148 105 116 221 273 211 180 209 196 249 298 258 215 229 237 256 268 264 260 254 244 232 221 231 247 250 261 271 251 276 284 284 281 274
8 91 111 16 300 287 24 43 353 27 332 16 288 333 320 356 294 287 227 114 101 191 224 180 199 247 208 231 220 237 235 267 236 231 237 241 251 255 257 258 248 219 232 244 239 241 242 251 266 264 268 269 269 268
35 58 144 10 1 2 329 41 21 337 1 335 283 225 230 197 245 281 300 196 185 193 209 218 233 233 231 235 237 252 240 247 259 266 264 255 253 257 257 245 233 220 229 240 244 242 246 246 254 258 260 258 264 268